Back to catalog

COSMOS 411

AliveMilitaryLEO
NORAD 5210·PAYLOAD·🇷🇺 Russia

Launched May 7, 1971 from Plesetsk Cosmodrome

Loading…

Next Passes (next 24 hours)

TLE

FreshSource: Space-Track

Epoch: Sep 14, 2026, 03:26 UTC

1 05210U 71041A   26257.14360339  .00000007  00000-0  12462-3 0  9997
2 05210  74.0162 160.7067 0112361 210.0049 220.7764 12.65000434556118

Track COSMOS 411 in real time with AllMySat

Download on the App Store